When you browse on this site, cookies collect data to enhance your experience and personalize the content and advertising you see.
Visit our Privacy Policy to learn more. By continuing to use the site, you agree to this use of cookies and data.

Stündliche Wetter Bolshie Misniki

Heute, 26 September, Samstag

Zeit Temperatur Niederschläge Wind Luftdruck Luftfeuchtigkeit
00:00 +15°C° 0 mm 4 m/S 741 mmHg 74%
01:00 +15°C° 0 mm 4 m/S 741 mmHg 69%
02:00 +14°C° 0 mm 4 m/S 741 mmHg 66%
03:00 +14°C° 0 mm 4 m/S 741 mmHg 67%
04:00 +13°C° 0 mm 4 m/S 741 mmHg 68%
05:00 +13°C° 0 mm 4 m/S 740 mmHg 69%
06:00 +13°C° 0 mm 5 m/S 740 mmHg 69%
07:00 +13°C° 0 mm 5 m/S 740 mmHg 69%
08:00 +14°C° 0 mm 5 m/S 741 mmHg 70%
09:00 +15°C° 0 mm 5 m/S 741 mmHg 67%
10:00 +17°C° 0 mm 5 m/S 741 mmHg 65%
11:00 +19°C° 0 mm 6 m/S 742 mmHg 62%
12:00 +20°C° 0 mm 6 m/S 742 mmHg 60%
13:00 +21°C° 0 mm 6 m/S 742 mmHg 59%
14:00 +22°C° 0 mm 6 m/S 741 mmHg 57%
15:00 +21°C° 0 mm 6 m/S 742 mmHg 60%
16:00 +20°C° 0 mm 5 m/S 742 mmHg 64%
17:00 +19°C° 0 mm 5 m/S 742 mmHg 67%
18:00 +17°C° 0 mm 5 m/S 742 mmHg 67%
19:00 +16°C° 0 mm 5 m/S 742 mmHg 67%
20:00 +16°C° 0 mm 5 m/S 742 mmHg 67%
21:00 +15°C° 0 mm 5 m/S 742 mmHg 67%
22:00 +15°C° 0 mm 5 m/S 742 mmHg 67%
23:00 +14°C° 0 mm 5 m/S 742 mmHg 67%

Morgen, 27 September, Sonntag

Zeit Temperatur Niederschläge Wind Luftdruck Luftfeuchtigkeit
00:00 +14°C° 0 mm 5 m/S 742 mmHg 67%
01:00 +14°C° 0 mm 5 m/S 742 mmHg 67%
02:00 +13°C° 0 mm 5 m/S 742 mmHg 66%
03:00 +13°C° 0 mm 5 m/S 742 mmHg 65%
04:00 +13°C° 0 mm 5 m/S 742 mmHg 65%
05:00 +12°C° 0 mm 5 m/S 742 mmHg 64%
06:00 +13°C° 0 mm 5 m/S 742 mmHg 64%
07:00 +13°C° 0 mm 6 m/S 743 mmHg 64%
08:00 +13°C° 0 mm 6 m/S 743 mmHg 64%
09:00 +15°C° 0 mm 6 m/S 743 mmHg 61%
10:00 +16°C° 0 mm 6 m/S 743 mmHg 58%
11:00 +18°C° 0 mm 7 m/S 743 mmHg 55%
12:00 +18°C° 0 mm 7 m/S 743 mmHg 55%
13:00 +20°C° 0 mm 7 m/S 743 mmHg 54%
14:00 +20°C° 0 mm 7 m/S 743 mmHg 53%
15:00 +18°C° 0 mm 7 m/S 743 mmHg 56%
16:00 +17°C° 0 mm 6 m/S 743 mmHg 59%
17:00 +16°C° 0 mm 6 m/S 743 mmHg 62%
18:00 +15°C° 0.1 mm 6 m/S 743 mmHg 63%
19:00 +15°C° 0.1 mm 5 m/S 743 mmHg 63%
20:00 +14°C° 0.1 mm 5 m/S 743 mmHg 64%
21:00 +14°C° 0.5 mm 5 m/S 743 mmHg 72%
22:00 +13°C° 0.5 mm 5 m/S 743 mmHg 81%
23:00 +12°C° 0.5 mm 5 m/S 743 mmHg 89%

übermorgen, 28 September, Montag

Zeit Temperatur Niederschläge Wind Luftdruck Luftfeuchtigkeit
00:00 +12°C° 0.6 mm 5 m/S 743 mmHg 91%
01:00 +12°C° 0.6 mm 4 m/S 743 mmHg 92%
02:00 +12°C° 0.6 mm 4 m/S 743 mmHg 94%
03:00 +13°C° 0.5 mm 4 m/S 743 mmHg 94%
04:00 +13°C° 0.5 mm 3 m/S 744 mmHg 95%
05:00 +13°C° 0.5 mm 3 m/S 744 mmHg 95%
06:00 +13°C° 0 mm 3 m/S 744 mmHg 94%
07:00 +12°C° 0 mm 3 m/S 744 mmHg 92%
08:00 +12°C° 0 mm 3 m/S 745 mmHg 91%
09:00 +13°C° 0 mm 3 m/S 745 mmHg 85%
10:00 +13°C° 0 mm 3 m/S 746 mmHg 79%
11:00 +14°C° 0 mm 3 m/S 746 mmHg 73%
12:00 +14°C° 0 mm 3 m/S 746 mmHg 70%
13:00 +16°C° 0 mm 3 m/S 747 mmHg 67%
14:00 +17°C° 0 mm 3 m/S 747 mmHg 63%
15:00 +16°C° 0 mm 3 m/S 747 mmHg 68%
16:00 +15°C° 0 mm 2 m/S 747 mmHg 72%
17:00 +14°C° 0 mm 2 m/S 747 mmHg 76%
18:00 +14°C° 0 mm 2 m/S 748 mmHg 78%
19:00 +13°C° 0 mm 2 m/S 748 mmHg 81%
20:00 +12°C° 0 mm 2 m/S 748 mmHg 83%
21:00 +12°C° 0 mm 2 m/S 748 mmHg 83%
22:00 +12°C° 0 mm 2 m/S 748 mmHg 82%
23:00 +12°C° 0 mm 2 m/S 748 mmHg 82%

29 September, Dienstag

Zeit Temperatur Niederschläge Wind Luftdruck Luftfeuchtigkeit
00:00 +12°C° 0 mm 2 m/S 748 mmHg 82%
01:00 +12°C° 0 mm 2 m/S 748 mmHg 82%
02:00 +12°C° 0 mm 2 m/S 748 mmHg 82%
03:00 +10°C° 0 mm 2 m/S 748 mmHg 83%
04:00 +10°C° 0 mm 2 m/S 747 mmHg 83%
05:00 +10°C° 0 mm 2 m/S 747 mmHg 84%
06:00 +11°C° 0 mm 3 m/S 747 mmHg 83%
07:00 +11°C° 0 mm 3 m/S 747 mmHg 81%
08:00 +12°C° 0 mm 3 m/S 746 mmHg 80%
09:00 +13°C° 0 mm 3 m/S 746 mmHg 79%
10:00 +16°C° 0 mm 3 m/S 746 mmHg 77%
11:00 +17°C° 0 mm 3 m/S 746 mmHg 75%
12:00 +18°C° 0 mm 4 m/S 746 mmHg 73%
13:00 +18°C° 0 mm 4 m/S 746 mmHg 71%
14:00 +19°C° 0 mm 4 m/S 745 mmHg 69%
15:00 +18°C° 0 mm 4 m/S 745 mmHg 72%
16:00 +17°C° 0 mm 3 m/S 745 mmHg 74%
17:00 +16°C° 0 mm 3 m/S 745 mmHg 77%
18:00 +14°C° 0 mm 3 m/S 745 mmHg 79%
19:00 +13°C° 0 mm 3 m/S 745 mmHg 81%
20:00 +12°C° 0 mm 3 m/S 745 mmHg 83%
21:00 +13°C° 0 mm 3 m/S 745 mmHg 80%
22:00 +13°C° 0 mm 3 m/S 745 mmHg 77%
23:00 +13°C° 0 mm 3 m/S 744 mmHg 74%

30 September, Mittwoch

Zeit Temperatur Niederschläge Wind Luftdruck Luftfeuchtigkeit
00:00 +12°C° 0 mm 3 m/S 744 mmHg 78%
01:00 +11°C° 0 mm 3 m/S 744 mmHg 82%
02:00 +10°C° 0 mm 3 m/S 744 mmHg 86%
03:00 +10°C° 0 mm 3 m/S 744 mmHg 87%
04:00 +10°C° 0 mm 4 m/S 744 mmHg 87%
05:00 +10°C° 0 mm 4 m/S 744 mmHg 88%
06:00 +11°C° 0 mm 4 m/S 744 mmHg 83%
07:00 +10°C° 0 mm 5 m/S 744 mmHg 78%
08:00 +12°C° 0 mm 5 m/S 744 mmHg 73%
09:00 +12°C° 0 mm 5 m/S 744 mmHg 71%
10:00 +13°C° 0 mm 5 m/S 744 mmHg 69%
11:00 +14°C° 0 mm 5 m/S 744 mmHg 66%
12:00 +14°C° 0 mm 5 m/S 744 mmHg 64%
13:00 +14°C° 0 mm 5 m/S 743 mmHg 62%
14:00 +14°C° 0 mm 5 m/S 743 mmHg 59%
15:00 +13°C° 0 mm 5 m/S 743 mmHg 60%
16:00 +13°C° 0 mm 5 m/S 743 mmHg 60%
17:00 +12°C° 0 mm 5 m/S 743 mmHg 60%
18:00 +12°C° 0 mm 5 m/S 743 mmHg 59%
19:00 +10°C° 0 mm 5 m/S 743 mmHg 57%
20:00 +11°C° 0 mm 4 m/S 743 mmHg 56%
21:00 +11°C° 0 mm 4 m/S 743 mmHg 56%
22:00 +11°C° 0 mm 4 m/S 743 mmHg 56%
23:00 +11°C° 0 mm 4 m/S 743 mmHg 56%

1 Oktober, Donnerstag

Zeit Temperatur Niederschläge Wind Luftdruck Luftfeuchtigkeit
00:00 +10°C° 0 mm 4 m/S 743 mmHg 57%
01:00 +9°C° 0 mm 5 m/S 743 mmHg 57%
02:00 +9°C° 0 mm 5 m/S 742 mmHg 57%
03:00 +9°C° 0 mm 5 m/S 742 mmHg 56%
04:00 +9°C° 0 mm 5 m/S 742 mmHg 55%
05:00 +10°C° 0 mm 5 m/S 742 mmHg 54%
06:00 +10°C° 0 mm 5 m/S 742 mmHg 55%
07:00 +10°C° 0 mm 6 m/S 742 mmHg 57%
08:00 +10°C° 0 mm 6 m/S 742 mmHg 58%
09:00 +11°C° 0 mm 6 m/S 742 mmHg 59%
10:00 +11°C° 0 mm 6 m/S 742 mmHg 60%
11:00 +13°C° 0 mm 6 m/S 742 mmHg 61%
12:00 +13°C° 0 mm 6 m/S 742 mmHg 61%
13:00 +14°C° 0 mm 7 m/S 742 mmHg 61%
14:00 +15°C° 0 mm 7 m/S 743 mmHg 61%
15:00 +14°C° 0 mm 7 m/S 743 mmHg 64%
16:00 +14°C° 0 mm 6 m/S 743 mmHg 67%
17:00 +13°C° 0 mm 6 m/S 743 mmHg 70%
18:00 +13°C° 0 mm 5 m/S 743 mmHg 72%
19:00 +12°C° 0 mm 5 m/S 743 mmHg 75%
20:00 +10°C° 0 mm 5 m/S 744 mmHg 77%
21:00 +10°C° 0 mm 5 m/S 744 mmHg 80%
22:00 +10°C° 0 mm 5 m/S 744 mmHg 84%
23:00 +11°C° 0 mm 4 m/S 744 mmHg 87%
Mehr zeigen